#timestamp,LO_Frequency,Hit,StdDev 
1621792815.2,286047001.1,N
1621792835.0,286047000.4,N
1621792835.9,286047000.4,N
1621792855.8,286047004.2,N
1621792875.6,286047005.0,N
1621792895.5,286047008.1,N
1621792915.3,286047008.7,N
1621792935.1,286047007.4,N
1621792955.9,286047006.4,N
1621792975.7,286047004.5,N
1621792995.6,286047004.7,N
1621793015.4,286047003.4,N
1621793035.2,286047001.6,N
1621793055.1,286047000.0,N
1621793056.0,286047000.0,N
1621793075.8,286047000.3,N
1621793095.6,286047000.5,N
1621793115.5,286047001.1,N
1621793135.3,286046999.7,N
1621793155.2,286047007.6,N
1621793175.9,286047011.1,N
1621793195.7,286047009.6,N
1621793215.6,286047008.3,N
1621793235.4,286047010.3,N
1621793255.2,286047010.0,N
1621793275.1,286047007.7,N
1621793276.0,286047007.7,N
1621793295.8,286047012.4,Y
1621793315.7,286047004.5,P
1621793335.5,286047003.1,P
1621793355.3,286047003.1,P
1621793375.2,286047003.5,Y
1621793395.0,286047000.5,P
1621793395.9,286047000.5,N
1621793415.8,286046999.8,N
1621793435.6,286046999.7,N
1621793455.4,286047000.3,N
1621793475.3,286046998.5,N
1621793495.1,286047000.0,N
1621793515.9,286047001.5,N
1621793535.7,286047003.2,N
1621793555.5,286047003.4,N
1621793575.4,286047003.6,N
1621793595.2,286047005.6,Y
1621793615.1,286047003.1,P
1621793616.0,286047003.1,P
1621793635.8,286047005.9,P
1621793655.6,286047005.0,N
1621793675.5,286047008.7,Y
1621793695.3,286047003.1,P
1621793715.2,286047006.0,P
1621793735.9,286047003.3,N
1621793755.7,286047007.5,Y
1621793775.6,286047003.8,P
1621793795.4,286047001.6,P
1621793815.2,286047002.8,N
1621793835.1,286047002.4,N
1621793836.0,286047002.4,N
1621793855.8,286047000.1,N
1621793875.7,286047000.1,N
1621793895.5,286047000.1,N
1621793915.3,286046998.3,N
1621793935.2,286046999.2,N
1621793955.0,286046999.6,N
1621793955.9,286046999.6,N
1621793975.8,286046999.6,N
1621793995.6,286046999.0,N
1621794015.4,286047002.5,N
1621794035.3,286047003.8,N
1621794055.1,286047002.9,N
1621794075.9,286047005.9,Y
1621794095.7,286047001.8,P
1621794115.5,286046999.8,N
1621794135.4,286046998.3,N
1621794155.2,286046999.2,N
1621794175.0,286046999.0,N
1621794175.9,286046999.0,N
1621794195.8,286046999.5,N
1621794215.6,286046999.5,N
1621794235.5,286046997.3,N
1621794255.3,286046997.2,N
1621794275.1,286046997.8,N
1621794295.9,286046996.6,N
1621794315.7,286046999.1,N
1621794335.5,286046997.3,N
1621794355.4,286046997.4,N
1621794375.2,286046997.2,N
1621794395.1,286046999.2,N
1621794396.0,286046999.2,N
1621794415.8,286046997.1,N
1621794435.6,286046996.6,N
1621794455.5,286046998.7,N
1621794475.3,286046998.5,N
1621794495.2,286046998.6,N
1621794515.9,286046999.6,N
1621794535.7,286046998.2,N
1621794555.6,286047000.0,N
1621794575.4,286047002.8,N
1621794595.2,286047000.2,N
1621794615.1,286046999.8,N
1621794616.0,286046999.8,N
1621794635.8,286046999.8,N
1621794655.7,286047002.4,N
1621794675.5,286047002.7,N
1621794695.3,286047002.8,N
1621794715.2,286047000.1,N
1621794735.0,286047002.7,N
1621794735.9,286047002.7,N
1621794755.7,286047002.5,N
1621794775.6,286047003.3,N
1621794795.4,286047007.3,Y
1621794815.3,286047006.7,P
1621794835.1,286047005.3,N
1621794855.8,286047005.2,N
1621794875.7,286047006.6,N
1621794895.5,286047007.8,N
1621794915.4,286047009.7,Y
1621794935.2,286047007.0,P
1621794955.0,286047006.2,P
1621794955.9,286047006.2,P
1621794975.8,286047008.8,Y
1621794995.6,286047006.0,P
1621795015.5,286047007.2,P
1621795035.3,286047009.3,P
1621795055.1,286047012.9,Y
1621795075.9,286047004.6,P
1621795095.7,286047004.7,P
1621795115.5,286047005.0,P
1621795135.4,286047006.1,Y
1621795155.2,286047001.4,P
1621795175.1,286047003.2,N
1621795176.0,286047003.2,N
1621795195.8,286047005.2,Y
1621795215.6,286047001.3,P
1621795235.5,286047003.0,N
1621795255.3,286046999.8,N
1621795275.2,286047003.2,N
1621795295.9,286047005.2,Y
1621795315.7,286046999.8,P
1621795335.6,286047002.1,N
1621795355.4,286047002.1,N
1621795375.3,286047000.9,N
1621795395.1,286046998.8,N
1621795396.0,286046998.8,N
1621795415.8,286047000.7,N
1621795435.7,286047002.8,N
1621795455.5,286047003.8,N
1621795475.3,286047003.3,N
1621795495.2,286047010.4,Y
1621795515.0,286047011.1,P
1621795515.9,286047011.1,N
1621795535.8,286047015.2,P
1621795555.6,286047014.7,N
1621795575.4,286047014.5,N
1621795595.3,286047015.1,Y
1621795615.1,286047001.9,P
1621795635.9,286047000.9,N
1621795655.7,286047001.0,N
1621795675.5,286047001.1,N
1621795695.4,286046998.3,N
1621795715.2,286046996.7,N
1621795735.0,286046998.0,N
1621795735.9,286046998.0,N
1621795755.8,286046995.1,N
1621795775.6,286046993.9,N
1621795795.5,286046993.3,N
1621795815.3,286047001.1,N
1621795835.1,286047004.4,N
1621795855.9,286047004.2,N
1621795875.7,286047003.6,N
1621795895.6,286047008.9,N
1621795915.4,286047012.1,N
1621795935.2,286047012.9,N
1621795955.1,286047015.3,N
1621795956.0,286047015.3,N
1621795975.8,286047012.5,N
1621795995.6,286047014.5,N
1621796015.5,286047017.0,N
1621796035.3,286047017.2,N
1621796055.2,286047017.1,N
1621796075.9,286047020.0,N
1621796095.7,286047023.4,N
1621796115.6,286047025.0,N
1621796135.4,286047024.2,N
1621796155.2,286047025.5,N
1621796175.1,286047024.2,N
1621796176.0,286047024.2,N
1621796195.8,286047025.2,N
1621796215.7,286047024.8,N
1621796235.5,286047027.8,N
1621796255.3,286047023.9,N
1621796275.2,286047027.4,N
1621796295.0,286047030.3,N
1621796295.9,286047030.3,N
1621796315.8,286047030.8,Y
1621796335.6,286047017.1,P
1621796355.4,286047016.7,P
1621796375.3,286047019.8,P
1621796395.1,286047021.5,Y
